Regional Weather Roundup
Issued by NWS

Home | Current Version | Previous Version | Graphics & Text | Print | Product List | Glossary On
Versions: 1 2 3 4 5 6 7 8 9 10 11 12 13 14 15 16 17 18 19 20 21 22 23 24 25 26 27 28 29 30 31 32 33 34 35 36 37 38 39 40 41 42 43 44 45 46 47 48 49 50
000
ASUS44 KMEG 240610
RWRTN
TENNESSEE HOURLY STATE WEATHER ROUNDUP
NATIONAL WEATHER SERVICE MEMPHIS TN
100 AM CDT THU APR 24 2014

TNZ002-004-019-021-049-052-054-088>092-240700-
WEST TENNESSEE

CITY           SKY/WX    TMP DP  RH WIND       PRES   REMARKS
MEMPHIS INTL   FAIR      61  39  44 E3        29.94R
NWS MEMPHIS      N/A     53 N/A N/A MISG        N/A
JACKSON        FAIR      55  37  50 CALM      29.96S
DYERSBURG      FAIR      57  34  41 E7        29.96F
UNION CITY     CLEAR     52  36  54 E3        29.96S
PARIS          FAIR      49  35  58 NE5       29.97F
LEXINGTON      CLEAR     48  37  66 CALM      29.96S
SILERTON         N/A     54  36  50 NE2         N/A
SAVANNAH       FAIR      45  44  96 CALM      29.97R
$$

TNZ008-025-027-028-033-062-065-066-240700-
NORTH MIDDLE TENNESSEE

CITY           SKY/WX    TMP DP  RH WIND       PRES   REMARKS
NASHVILLE      FAIR      50  36  58 CALM      30.00S
DICKSON        FAIR      52  32  46 CALM      29.98S
PORTLAND       FAIR      52  34  50 E3        30.00F
CLARKSVILLE    FAIR      51  35  54 E5        30.00R
SMYRNA         FAIR      44  37  76 CALM      30.00F
MURFREESBORO   FAIR      52  34  50 NE3       29.98F
COOKEVILLE     CLEAR     39  36  87 CALM      29.99F
LIVINGSTON     FAIR      48  33  56 E6        30.01
GALLATIN       FAIR      52  35  52 NE3       30.01F
CROSSVILLE     FAIR      48  31  51 NE3       30.01F
$$

TNZ061-075-076-078-094-096-097-240700-
SOUTH MIDDLE TENNESSEE

CITY           SKY/WX    TMP DP  RH WIND       PRES   REMARKS
LEWISBURG      FAIR      41  38  89 CALM      29.98F
FAYETTEVILLE   FAIR      49  34  56 NE6       29.97F
TULLAHOMA      CLEAR     52  34  50 CALM      29.99S
WINCHESTER     CLEAR     43  39  87 CALM      29.98F
MCMINNVILLE    CLEAR     45  37  76 CALM      29.99F
COLUMBIA       CLEAR     46  46 100 CALM      29.97F
SHELBYVILLE    FAIR      48  36  61 CALM      29.99F
$$

TNZ017-018-042-046-047-240700-
NORTHEAST TENNESSEE

CITY           SKY/WX    TMP DP  RH WIND       PRES   REMARKS
TRI CITIES     FAIR      41  30  65 CALM      30.04F
ELIZABETHTON   CLEAR     37  32  81 CALM      30.04F
$$

TNZ012-013-036-069-073-074-240700-
CENTRAL EAST TENNESSEE

CITY           SKY/WX    TMP DP  RH WIND       PRES   REMARKS
KNOXVILLE      FAIR      51  33  50 N8        30.00F
OAK RIDGE      FAIR      50  34  54 CALM      30.02F
$$

TNZ083-085-099-240700-
SOUTHEAST TENNESSEE

CITY           SKY/WX    TMP DP  RH WIND       PRES   REMARKS
CHATTANOOGA    FAIR      49  43  80 N3        29.98F
$$

SKY/WX REPORTED AS FAIR MEANS FEW OR NO CLOUDS BELOW
12 THOUSAND FEET.




USA.gov is the U.S. government's official web portal to all federal, state and local government web resources and services.